{"data":{"norad_id":44113,"intl_designator":"2019-020B","name":"O3B FM19","alt_names":[],"object_type":"PAYLOAD","status":"ACTIVE","operator":null,"country":"O3B","launch_date":"2019-04-04","launch_site_code":"FRGUI","launch_vehicle":null,"mission":null,"orbit_class":"UNKNOWN","rcs_meters":null,"size_class":null,"mass_kg":null,"dimensions":null,"purposes":["comms"],"wikipedia_slug":null,"has_3d_model":false,"image_url":null,"decayed_at":null,"tle_current":{"epoch":"2026-09-19T23:41:21.095808Z","epoch_age_seconds":58750,"freshness":"FRESH","line1":"1 44113U 19020B   26262.98704972 -.00000027  00000+0  00000+0 0  9997","line2":"2 44113   0.0765 339.7762 0002905 172.7324 207.5091  5.00116090136187","mean_motion":5.0011609,"eccentricity":0.0002905,"inclination_deg":0.0765,"raan_deg":339.7762,"arg_perigee_deg":172.7324,"mean_anomaly_deg":207.5091,"bstar":0,"rev_number":13618,"period_min":287.93314768177,"perigee_km":8061.6828716818,"apogee_km":8070.0748448955,"semimajor_km":14444.015858289,"source":"CELESTRAK","updated_at":"2026-09-20T09:00:35.686810Z"}}}